STARLINK-11136, 60407

Orbit data source: Space-Track

STARLINK-11136, 60407 is a payload satellite owned by SpaceX/Seattle (US) in LEO that was launched on Sat, 10 Aug 2024 UTC via an FALCON 9 launch vehicle from the Air Force Eastern Test Range (AFETR). Payloads include a variety of satellites, spacecraft, and rockets equipped with specific instruments for various scientific and technological missions. These include communications satellites like Starlink; space stations such as the ISS; scientific satellites like the Hubble; Earth observation satellites from companies like Planet Labs, Umbra, and HawkEye 360; GPS; miniature CubeSats for education and research; and military/defense satellites.

Loading next visibility...
STARLINK-11136 details
Identifier
60407, 2024-141K
Orbit
LEO
Last TLE update8 hours ago
Origin
Flag of USSpaceX/Seattle (US)
ManufacturerSpaceX/Seattle
MissionOperational spacecraft
Bus & MotorSTARLINK V2M, Unknown motor
Mass730 kg wet, ~700 kg dry
Launch date (UTC)
2024-08-10 (5 months ago)
Launch vehicle
FALCON 9
Launch site
Air Force Eastern Test Range (AFETR)
Object type
Payload
Rocket body
Debris
Shape & HBRUnknown
Radar Cross SectionLarge (>1 m²)

Expand to show TLE details & history

TLE from 8 hours ago
0 STARLINK-11136
1 60407U 24141K   25014.95236289 -.00000453  00000-0  11264-5 0  9997
2 60407  53.1596 350.6156 0001787 100.9218 259.2001 15.69709971 25929
Epoch: 2025-01-14T22:51Z
Definitive object data (Epoch: 2025-01-14T22:51:24.153Z)
Latitude-0.00004°
Longitude-106.88674°
Altitude360.868 km
Speed7.694 km/s
True Right ascension23h 22m 27s
True Declination0° 00' 00"
Sunlit
Object was in daylight at TLE epoch
Visualization TLE readout
Latitude47.53357°
Longitude16.95895°
Altitude363.788 km
Speed7.698 km/s
Apparent Right ascension19h 41m 06s
Apparent Declination68° 55' 20"
Sunlit
Object is in full shadow
Visualization observer readout
Local Sidereal Time07:38:04
Azimuth359.712° N
Elevation18.84°
Doppler factor1
Orbital elements
Apogee altitude361.192 km
Perigee altitude358.783 km
Semi-major axis6,738.125 km
Eccentricity0.0001787
Inclination53.1596°
RAAN350.6156°
Arg. of periapsis100.9218°
True anomaly259.17999°
Mean anomaly259.2001°
Eccentric anomaly259.19004°
Mean motion3.92405 °/min
BSTAR0.0000011264
Orbital period91.74 mins
Loading maneuver chart data...
Loading historical data...
Loading historical data...
Loading historical data...
Loading historical data...
Loading historical data...
Loading historical data...
Loading historical data...

STARLINK-11136 Visibility forecast

Observer location: undefined°, undefined

Span
Click to sort rows by Start time (UTC) header in descending order
Start Az.
Max El. time (UTC)
Max El. Az.
Max El.
End time (UTC)
End Az.
4 mins2025-01-15 08:33:36.151Z276.007° WNW2025-01-15 08:34:36.151Z244.812° WSW27.441°2025-01-15 08:37:36.151Z160.534° S
4 mins2025-01-16 01:02:36.151Z244.847° WSW2025-01-16 01:03:36.151Z274.47° WNW40.522°2025-01-16 01:06:36.151Z44.685° NE
|